Lid_Strength_Index
-1 -1 -0 1 7 7 9 9 5 6 7 5 4 5 7 6 8 10 1 -0 -0 -0 -1 -1 -1 -1 -1 -1 -1 -1 -1 -1 -1 -1 -1 -2 -2 -2 -2 -2 -2 -3 -3 -2 -3 -3 -2 -2 -3
-1 1 2 3 10 15 11 7 7 6 5 4 4 4 5 7 3 3 2 -0 -0 -1 -1 -1 -1 -1 -1 -1 -1 -1 -1 -1 -1 -1 -2 -2 -2 -2 -2 -2 -3 -3 -3 -2 -2 -2 -2 -2 -2
2 2 4 5 11 9 9 6 5 5 4 4 5 4 5 6 3 2 0 -0 -1 -1 -1 -2 -1 -1 -1 -1 -1 -1 -1 -1 -1 -2 -2 -2 -2 -2 -2 -2 -3 -3 -2 -2 -2 -2 -2 -2 -2
2 3 3 7 11 6 6 6 5 5 4 3 4 7 4 2 2 1 -0 -1 -1 -1 -1 -1 -1 -1 -1 -1 -1 -1 -1 -1 -1 -2 -2 -2 -2 -2 -2 -3 -3 -3 -2 -2 -2 -2 -2 -2 -1
3 4 6 7 7 6 5 5 5 7 5 5 4 6 6 3 1 -0 -0 -0 0 -0 -1 -1 -1 -1 -1 -1 -1 -1 -1 -1 -2 -2 -2 -2 -2 -2 -2 -2 -2 -2 -2 -2 -2 -2 -2 -2 -2
5 4 8 10 7 5 5 4 4 7 5 5 5 6 6 2 1 0 -0 -0 -0 -1 -1 -1 -1 -1 -1 -1 -1 -1 -1 -2 -2 -2 -2 -2 -2 -2 -2 -2 -2 -2 -2 -2 -2 -2 -2 -2 -2
4 5 8 7 7 6 5 4 5 6 5 5 4 6 5 3 1 0 -0 -0 -0 -0 -0 -1 -1 -1 -1 -1 -2 -1 -2 -2 -2 -2 -2 -2 -2 -2 -2 -2 -2 -2 -2 -2 -2 -2 -1 -1 -1
4 5 7 6 7 7 5 4 4 5 6 3 3 6 6 3 1 0 0 0 -0 -0 -1 -1 -1 -1 -2 -1 -1 -1 -2 -1 -2 -2 -2 -2 -2 -2 -2 -2 -2 -1 -2 -1 -1 -1 -1 -1 -0
3 6 8 7 7 6 4 6 4 3 5 5 4 4 3 1 1 1 1 1 1 0 -0 -1 -1 -1 -2 -2 -1 -2 -2 -1 -1 -2 -1 -2 -2 -2 -2 -2 -2 -1 -1 -1 -1 -1 -1 -2 -2
4 6 6 5 5 5 5 5 5 6 6 6 5 3 2 2 2 2 2 3 2 1 0 -1 -1 -1 -1 -1 -2 -2 -1 -1 -2 -1 -2 -2 -2 -2 -1 -2 -2 -2 -2 -1 -2 -2 -2 -2 -1
4 6 5 5 4 4 5 5 4 6 9 7 7 5 4 3 3 3 2 2 2 1 0 -0 -0 -1 -1 -2 -3 -1 -2 -2 -1 -2 -2 -2 -2 -2 -2 -1 -1 -2 -2 -1 -1 -1 -1 -2 -1
6 5 4 5 4 5 6 5 7 7 7 5 4 4 4 4 4 3 3 2 2 1 0 -0 -1 -1 -1 -1 -1 -1 -1 -1 -1 -2 -2 -1 -1 -1 -1 -1 -2 -1 -1 -0 -1 0 -1 -1 -0
5 5 5 4 5 5 5 7 7 7 5 4 4 4 4 4 3 2 2 1 1 1 0 -0 -1 -1 -1 -1 -1 -1 -0 -1 -1 -1 -2 -1 -1 -1 -1 -0 -1 -1 -1 -0 -0 0 1 1 1
5 5 5 5 5 5 6 7 6 7 5 5 4 4 4 4 3 3 2 2 2 1 1 -0 -0 -1 -1 -1 -1 -1 -1 -1 -1 -1 -1 -1 -1 -1 -1 -1 -1 -0 0 1 2 2 2 2 1
4 6 6 6 5 6 5 8 9 6 5 6 5 4 4 4 3 3 2 2 2 1 0 -0 -0 -1 -1 -0 -1 -1 -1 -1 -1 -1 -1 -1 -1 -1 -1 0 -0 0 0 1 2 2 2 2 1
6 6 10 6 5 5 6 11 7 5 6 6 6 5 5 4 4 3 3 3 2 2 1 -0 0 -1 -1 -1 -1 -1 -1 -1 -1 -2 -1 -1 0 0 0 0 -0 -1 -1 0 1 1 2 2 3
6 13 9 8 5 6 6 10 7 5 6 7 6 6 5 5 4 4 3 3 2 1 0 1 0 -0 -1 -1 -1 -1 -2 -1 -2 -2 -2 -1 -0 0 1 1 1 0 0 2 1 2 3 4 3
12 10 8 8 7 6 8 9 7 5 6 7 6 6 5 5 4 3 3 1 1 0 0 0 0 -1 -1 -0 -1 -0 0 -0 -1 -2 -2 -2 -2 -1 -2 -1 -1 -1 -1 -0 1 0 2 3 3
6 7 8 8 6 7 8 8 7 6 6 7 6 6 5 5 3 2 2 1 1 0 1 -0 -0 -1 -0 1 2 1 1 0 0 -0 -1 0 0 0 -1 0 0 -1 -0 -1 -1 0 0 1 0
6 7 11 8 7 7 8 9 8 6 6 6 6 6 5 5 4 3 1 1 1 1 1 -0 -1 -1 -0 1 1 1 0 0 -0 -1 -1 -1 -1 -0 -0 -1 -0 -1 -0 -0 -1 -0 1 1 -0
7 7 7 8 7 7 8 10 9 7 6 6 5 5 5 5 4 3 2 2 1 1 0 -0 -0 -0 -1 -1 -0 -0 -1 -0 0 0 0 -0 -1 -1 -1 -2 -1 -1 -1 0 -1 -0 0 2 0
8 6 6 7 9 11 8 13 11 9 9 7 6 6 5 4 4 3 3 2 1 1 0 0 -0 -1 -1 -2 -1 -1 1 1 1 0 -0 -1 -1 -2 -2 -2 -2 -2 -1 -0 -1 -1 -0 0 2
7 5 6 7 8 9 9 16 12 10 11 9 7 6 5 4 3 4 3 2 1 1 0 -0 -1 -1 -1 -1 -1 0 1 1 0 -0 -0 -0 -2 -2 -1 -2 -2 -1 -1 -1 -1 -1 -0 -0 1
5 6 6 7 8 14 11 12 14 11 9 8 7 6 5 4 4 3 3 2 2 1 0 -0 -0 -0 -1 -1 -0 -1 0 0 1 0 1 0 -0 -0 -1 -2 -2 -2 -1 -1 -1 -1 -1 -0 -0
6 7 11 12 11 12 9 10 13 9 7 7 7 6 5 4 4 3 3 3 2 1 1 0 1 1 -0 -0 -0 -0 -0 -0 -0 0 1 1 1 -0 -1 -2 -1 -1 -2 -2 -2 -1 -1 -1 -0
7 8 11 15 13 11 8 15 14 7 6 6 6 5 4 4 3 3 3 2 1 1 1 1 1 1 0 -0 -0 -0 -0 1 1 -0 0 0 0 -0 -2 -1 -2 -2 -2 -2 -1 -1 -0 -1 -0
7 9 6 9 9 11 13 12 9 7 7 6 6 5 5 4 4 3 2 2 2 2 1 1 1 0 -0 0 0 0 -0 -0 1 0 0 0 -1 -1 -1 -1 -1 -1 -1 -1 -1 -0 -0 -0 -1
6 6 10 9 13 14 14 14 14 10 9 7 7 6 5 4 4 3 2 2 1 1 1 0 0 0 1 1 1 1 1 0 0 0 0 1 -0 -1 -1 -1 -1 -1 -1 -1 -1 -1 -1 -0 -0
7 8 8 9 10 13 14 15 8 8 7 7 6 5 4 4 3 2 2 1 1 1 1 1 1 1 1 1 1 1 1 2 1 1 1 1 0 -0 0 0 0 0 -1 -1 -1 -0 -0 0 0
6 8 8 12 12 10 11 15 7 6 6 5 6 5 4 3 3 2 2 2 1 2 2 2 1 2 2 1 1 1 2 2 1 2 2 1 1 0 0 -0 0 0 0 -1 -1 -0 -1 0 0